Location: Kellogg
(38.0159°N, 90.0546°W)
Time: 22:11:59
(UTC+00:00)

Vanguard 3 - All Passes

Search period start: 11 September 2024 00:00
Search period end: 21 September 2024 00:00
Orbit: 507 x 3226 km, 33.3° (Epoch: 10 September)

Date Brightness Start Highest point End Pass type
(mag) Time Alt. Az. Time Alt. Az. Time Alt. Az.
11 Sep - 10:55:28 10° S 11:09:29 26° SE 11:23:10 10° E visible
11 Sep - 13:05:18 10° SW 13:24:00 53° SSE 13:39:02 10° E daylight
11 Sep - 15:20:18 10° WSW 15:39:19 72° S 15:51:36 10° E daylight
11 Sep - 17:37:39 10° W 17:53:33 66° SSW 18:02:36 10° ESE daylight
11 Sep - 19:55:20 10° W 20:05:11 31° SW 20:11:23 10° SSE daylight
12 Sep - 09:40:46 10° SSE 09:48:52 14° SE 09:57:15 10° ESE visible
12 Sep - 11:45:28 10° SSW 12:02:25 41° SE 12:18:11 10° E daylight
12 Sep - 13:58:10 10° WSW 14:17:39 66° SSE 14:32:08 10° E daylight
12 Sep - 16:14:36 10° W 16:32:54 73° S 16:44:04 10° ESE daylight
12 Sep - 18:32:13 10° W 18:46:11 50° SSW 18:54:16 10° SE daylight
12 Sep - 20:51:21 10° W 20:56:29 15° SW 21:00:30 10° SSW daylight
13 Sep - 10:27:23 10° S 10:41:18 28° SE 10:55:43 10° E visible
13 Sep - 12:37:08 10° SW 12:55:46 55° SSE 13:11:56 10° E daylight
13 Sep - 14:51:51 10° WSW 15:11:26 74° S 15:24:55 10° E daylight
13 Sep - 17:09:04 10° W 17:26:10 66° SSW 17:36:14 10° ESE daylight
13 Sep - 19:27:02 10° W 19:38:08 32° SW 19:45:08 10° SSE daylight
14 Sep - 09:12:28 10° SSE 09:20:51 15° SE 09:29:49 10° ESE visible
14 Sep - 11:17:28 10° SSW 11:34:06 42° SE 11:50:44 10° E visible
14 Sep - 13:29:55 10° WSW 13:49:28 67° SSE 14:05:08 10° E daylight
14 Sep - 15:46:03 10° W 16:05:09 74° S 16:17:29 10° ESE daylight
14 Sep - 18:03:39 10° W 18:18:53 51° SSW 18:27:54 10° SE daylight
14 Sep - 20:23:10 10° W 20:29:27 16° SW 20:34:15 10° SSW daylight
15 Sep - 09:59:30 10° S 10:13:03 29° SE 10:27:59 10° E visible
15 Sep - 12:09:07 10° SW 12:27:23 57° SSE 12:44:35 10° E daylight
15 Sep - 14:23:30 10° WSW 14:43:21 75° S 14:58:03 10° E daylight
15 Sep - 16:40:28 10° W 16:58:32 66° SSW 17:09:43 10° ESE daylight
15 Sep - 18:58:33 10° W 19:10:53 33° SW 19:18:44 10° SSE daylight
16 Sep - 08:44:30 10° SSE 08:52:48 16° SE 09:02:00 10° E visible
16 Sep - 10:49:39 10° SSW 11:05:42 44° SE 11:23:01 10° E visible
16 Sep - 13:01:48 10° WSW 13:21:05 69° SSE 13:37:54 10° E daylight
16 Sep - 15:17:33 10° W 15:37:11 74° S 15:50:43 10° ESE daylight
16 Sep - 17:34:59 10° W 17:51:20 52° SSW 18:01:23 10° SE daylight
16 Sep - 19:54:46 10° W 20:02:13 17° SW 20:07:50 10° SSW daylight
17 Sep - 09:31:49 10° S 09:44:47 29° SE 09:59:57 10° E visible
17 Sep - 11:41:16 10° SW 11:58:53 59° SSE 12:16:58 10° E daylight
17 Sep - 13:55:14 10° WSW 14:15:03 75° S 14:30:57 10° E daylight
17 Sep - 16:11:50 10° W 16:30:40 66° SSW 16:42:59 10° ESE daylight
17 Sep - 18:29:55 10° W 18:43:24 34° SW 18:52:10 10° SSE daylight
18 Sep - 08:16:48 10° SSE 08:24:44 16° SE 08:33:52 10° E visible
18 Sep - 10:22:01 10° SSW 10:37:15 45° SE 10:55:00 10° E visible
18 Sep - 12:33:51 10° WSW 12:52:35 70° SSE 13:10:25 10° E daylight
18 Sep - 14:49:07 10° W 15:08:59 75° S 15:23:43 10° ESE daylight
18 Sep - 17:06:17 10° W 17:23:34 52° SSW 17:34:41 10° SE daylight
18 Sep - 19:26:13 10° W 19:34:47 18° SW 19:41:14 10° SSW daylight
19 Sep - 09:04:19 10° S 09:16:30 30° SE 09:31:39 10° E visible
19 Sep - 11:13:34 10° SW 11:30:21 60° SSE 11:49:04 10° E visible
19 Sep - 13:27:06 10° WSW 13:46:35 76° S 14:03:37 10° E daylight
19 Sep - 15:43:14 10° W 16:02:34 66° SSW 16:16:04 10° ESE daylight
19 Sep - 18:01:12 10° W 18:15:41 35° SW 18:25:26 10° SSE daylight
20 Sep - 07:49:19 10° SSE 07:56:43 16° SE 08:05:27 10° E visible
20 Sep - 09:54:32 10° SSW 10:08:48 46° SE 10:26:46 10° E visible
20 Sep - 12:06:01 10° WSW 12:23:59 71° SSE 12:42:41 10° E daylight
20 Sep - 14:20:48 10° W 14:40:35 75° S 14:56:30 10° ESE daylight
20 Sep - 16:37:35 10° W 16:55:32 52° SSW 17:07:46 10° SE daylight
20 Sep - 18:57:33 10° W 19:07:08 19° SW 19:14:25 10° S daylight
